Temperature
16 16 17 17 17 17 17 17 17 18 18 18 18 18 17 17 17 16 16 16 16 16 16 16 16 16 16 16 16 15 15 15 15 15 15 15 15 15
16 16 16 16 16 17 17 17 17 17 17 18 18 18 17 17 17 16 16 16 16 16 16 16 16 16 16 16 16 16 16 15 15 15 15 15 15 15
15 16 16 16 16 16 16 16 17 17 17 17 17 17 17 17 17 16 16 16 16 16 16 16 16 16 16 16 16 16 16 15 15 15 15 15 15 15
15 15 15 15 16 16 16 16 16 16 16 16 17 17 16 16 16 16 16 16 15 15 16 16 16 16 16 16 16 16 15 15 15 15 15 15 15 15
15 15 15 15 15 15 15 15 15 16 16 16 16 16 16 16 15 15 15 15 15 15 15 15 15 15 15 15 15 15 15 15 15 15 15 15 15 15
15 15 15 15 15 15 15 15 15 15 15 15 15 15 15 15 15 15 15 15 15 15 15 15 15 15 15 15 14 14 14 15 14 14 14 14 14 14
15 15 15 15 15 14 14 14 14 14 14 14 14 14 14 14 14 14 14 14 14 14 14 14 14 14 14 14 14 14 14 14 14 14 14 13 13 13
14 14 14 14 14 14 14 14 14 13 13 13 13 13 13 13 13 13 13 12 13 13 13 13 13 13 13 13 13 13 13 13 13 13 13 13 13 13
14 14 13 13 13 13 13 13 13 12 12 12 12 12 12 11 11 12 11 11 11 12 11 12 12 12 12 12 12 12 12 12 12 12 12 12 12 12
13 13 12 12 12 12 12 12 12 11 11 11 11 11 11 10 10 10 10 10 10 10 10 10 10 11 11 11 11 11 11 11 11 11 11 11 11 11
12 12 11 11 11 11 11 11 11 10 10 10 10 10 10 10 9 9 9 8 8 9 9 9 9 9 10 10 10 10 10 10 10 10 10 10 10 10
11 11 11 10 10 10 10 10 10 10 9 9 9 9 9 9 8 8 8 8 7 7 8 8 8 7 7 8 8 8 8 9 9 9 9 9 9 9
10 9 9 9 9 9 9 9 8 8 8 8 8 8 8 8 8 7 7 7 6 6 6 6 6 6 6 6 6 7 7 7 7 8 8 8 8 8
9 9 8 8 8 8 8 7 7 7 7 7 7 7 7 7 7 6 6 6 6 5 5 5 5 5 5 5 5 6 6 6 6 7 7 7 7 8
8 8 8 7 7 7 6 6 6 6 6 6 6 5 5 5 5 5 5 5 5 5 5 5 5 4 4 4 4 5 5 5 6 6 6 6 6 7
7 7 7 7 6 6 6 6 5 5 5 5 4 4 4 4 4 4 4 4 4 4 4 4 4 4 3 4 4 4 4 4 5 5 5 6 6 6
7 6 6 6 6 6 5 5 4 4 4 4 4 3 3 3 3 3 3 3 3 3 3 3 3 3 3 3 3 3 4 4 4 4 5 5 5 6
6 6 5 5 5 4 4 4 3 3 3 3 2 2 2 2 2 2 2 2 2 2 2 2 2 2 2 3 3 3 3 3 3 4 4 4 4 5
5 5 5 4 4 3 3 3 2 2 2 2 2 1 1 1 1 1 1 1 1 1 1 1 1 1 1 1 2 2 2 2 3 3 3 4 4 4
5 4 4 3 3 2 2 2 2 1 1 1 1 1 1 1 0 0 0 0 0 0 0 1 1 1 0 0 1 2 2 2 2 3 3 3 4 4
4 3 3 3 2 2 2 1 1 1 1 1 0 0 0 -0 -0 -0 -0 -0 -0 -0 -0 0 0 0 0 0 1 1 2 2 2 2 3 3 3 4
3 3 2 2 2 1 1 1 0 0 0 -0 -0 -0 -1 -1 -1 -1 -1 -1 -0 -0 -0 -0 -0 -0 0 0 0 1 1 2 2 3 3 3 3 3
2 2 2 2 1 1 1 0 -0 -0 -1 -1 -1 -1 -1 -1 -1 -1 -1 -1 -1 -1 -1 -1 -0 -0 -0 0 0 1 1 1 2 2 3 3 3 4
Wind_Speed
3 3 2 3 2 2 2 2 2 2 2 2 2 4 6 8 14 14 11 16 18 17 17 16 16 16 15 15 15 15 16 16 16 16 16 16 17 17
2 2 2 3 3 2 2 2 2 2 3 1 2 2 3 5 12 10 9 13 19 20 20 20 20 19 18 18 18 18 18 18 18 19 19 19 19 19
4 3 2 3 4 4 3 2 2 2 3 3 2 1 2 1 3 6 8 9 13 21 24 24 23 22 22 21 21 21 21 21 21 21 20 20 20 20
4 3 3 4 3 3 3 4 3 2 2 4 3 3 1 2 3 4 7 9 9 13 21 23 24 24 23 23 22 23 23 23 23 22 22 22 22 21
3 3 3 3 2 2 3 3 4 4 2 3 4 3 2 2 2 3 5 4 9 11 11 16 19 21 23 23 24 24 24 24 24 24 23 23 22 22
1 2 2 2 2 2 2 3 4 4 4 4 4 4 3 3 2 2 4 4 5 9 10 9 11 15 19 21 23 24 25 25 24 24 23 23 23 22
3 4 5 6 7 6 4 4 5 4 4 4 4 4 3 4 4 4 4 5 6 5 4 5 5 6 11 17 21 22 21 22 22 22 22 22 22 22
5 4 5 6 7 7 7 6 5 4 4 4 4 4 5 5 5 5 5 5 5 4 5 7 6 7 7 13 16 16 16 18 19 20 21 21 21 22
5 5 5 7 7 5 4 3 3 3 2 2 3 4 4 4 5 5 6 6 7 7 8 9 7 8 8 15 16 15 16 17 17 17 18 19 20 21
7 6 7 7 8 7 5 4 2 2 1 1 1 3 4 3 3 5 7 7 8 7 6 8 7 7 8 10 16 18 17 17 17 17 18 20 21 22
7 8 7 7 10 11 7 6 5 5 5 5 6 8 10 11 8 4 5 6 8 7 5 6 6 8 7 7 11 15 17 18 19 19 19 19 21 21
6 8 12 10 10 10 7 6 6 7 8 9 8 9 9 10 10 6 5 6 7 6 4 6 7 8 6 5 5 11 14 17 19 19 19 20 22 15
4 5 5 7 7 8 6 4 4 6 7 7 7 6 4 3 2 2 3 4 6 7 7 7 8 8 9 9 9 7 7 7 11 14 18 20 22 15
5 4 3 4 5 6 4 4 7 8 6 6 5 5 6 6 6 6 7 7 7 7 10 8 7 8 10 12 11 8 8 8 7 8 9 16 18 20
4 4 3 5 6 4 4 6 6 4 5 6 6 6 6 6 6 5 7 9 10 12 13 11 8 8 8 10 11 10 11 9 8 9 8 8 8 8
5 4 6 6 4 5 4 2 2 4 5 5 6 6 6 7 6 7 7 8 8 8 9 14 12 9 9 10 11 12 10 9 9 10 10 9 8 8
7 4 2 2 2 3 4 5 5 6 6 7 7 7 7 7 7 7 7 8 8 9 9 7 10 12 9 11 11 11 11 11 10 10 10 11 10 9
6 4 4 6 6 7 7 7 7 7 7 7 7 7 8 8 8 8 8 8 9 9 10 10 10 11 10 9 9 10 10 11 11 11 11 12 13 10
4 4 5 6 6 6 6 7 7 7 6 7 7 7 8 8 9 9 9 9 9 10 10 10 10 10 13 14 10 11 12 13 13 12 11 11 13 12
3 5 6 6 5 6 6 6 6 6 6 7 7 7 8 8 9 9 9 10 10 11 10 9 9 9 11 13 14 14 16 13 12 12 13 13 12 14
6 6 6 6 6 5 5 5 6 6 7 7 7 8 8 9 9 10 10 13 11 10 11 11 10 14 12 10 11 11 11 15 17 14 14 14 14 13
6 6 6 5 5 5 5 6 6 7 7 8 8 9 10 10 11 11 10 10 10 10 12 12 11 11 10 12 14 14 15 14 15 20 19 17 12 11
6 6 5 5 5 5 6 7 8 7 8 8 9 10 11 11 10 10 10 10 10 11 12 12 11 10 11 12 13 13 16 17 13 13 12 15 19 21
Wind_Direction
239 225 254 287 276 296 318 330 319 301 276 221 187 176 164 156 168 190 203 207 212 217 223 228 232 235 239 241 244 246 250 253 255 256 257 258 258 258
251 264 235 294 303 266 280 297 303 299 299 290 240 177 161 170 177 206 226 214 216 221 227 230 233 236 239 243 246 250 252 255 256 258 258 258 258 258
241 227 224 282 318 332 321 302 294 296 291 302 317 35 131 155 166 235 251 232 225 228 231 232 234 237 241 244 248 251 253 255 257 257 258 258 258 258
229 246 241 245 241 287 318 316 310 314 308 303 312 332 296 230 219 241 261 263 262 247 236 235 237 240 243 246 250 252 254 256 257 258 258 258 258 258
220 222 241 268 278 289 293 309 319 314 313 291 293 299 298 302 286 271 281 294 295 290 262 245 245 248 250 251 253 254 256 257 258 258 259 260 260 260
71 70 54 41 1 322 312 330 325 324 325 315 303 305 307 328 339 320 306 317 309 307 308 292 266 261 261 262 262 261 262 261 261 260 260 260 260 261
78 76 71 69 61 47 36 22 4 352 339 330 319 329 344 355 351 335 316 316 302 295 318 312 308 292 284 277 271 267 265 264 263 261 261 261 262 262
89 83 78 64 62 64 61 54 41 19 2 346 341 345 359 3 355 338 331 328 313 330 337 312 306 292 280 278 274 270 271 270 268 266 264 263 263 263
71 64 60 53 41 34 45 62 64 66 58 2 349 346 344 355 346 330 323 314 294 297 300 291 285 284 283 291 296 293 288 284 277 269 265 264 265 265
74 73 71 54 32 22 15 21 23 18 355 315 319 307 314 323 305 296 292 291 281 280 280 287 289 288 293 304 307 307 302 296 287 278 272 270 270 270
73 68 71 65 36 23 18 13 10 358 349 337 306 287 281 277 272 286 293 298 300 302 308 307 313 317 311 306 307 316 322 315 304 294 286 281 279 278
85 76 64 59 41 29 21 12 4 353 341 328 309 290 276 271 262 245 277 301 309 309 337 341 326 327 311 302 317 323 316 309 305 300 294 289 285 284
79 85 70 48 33 21 7 357 342 324 314 305 302 306 312 323 350 351 329 318 314 309 321 327 316 312 300 301 305 300 302 304 306 302 298 292 288 281
49 57 52 7 349 335 326 318 320 318 310 317 328 340 349 356 353 345 333 319 304 296 299 302 301 304 305 303 304 304 303 301 299 295 296 297 293 287
34 21 330 301 309 305 272 292 312 326 342 343 345 348 348 345 338 332 330 327 319 311 312 315 308 304 299 299 300 303 304 299 293 295 295 294 292 289
2 318 285 274 282 311 333 340 338 1 359 349 345 343 341 340 340 339 333 331 322 315 316 319 313 306 305 301 299 298 297 296 298 297 299 299 296 292
333 307 316 20 18 16 14 18 15 10 6 356 347 342 338 336 334 333 327 323 318 318 321 322 321 314 302 298 298 298 300 300 300 303 305 302 295 291
341 349 20 26 22 18 12 8 10 10 2 349 343 341 338 335 332 330 328 325 322 322 323 322 320 315 310 299 291 304 308 308 307 304 301 298 296 293
345 8 33 31 23 15 10 6 1 357 351 344 343 341 338 335 332 329 329 327 325 323 319 317 316 316 315 311 307 307 304 302 299 298 296 294 294 294
23 28 32 26 23 15 8 1 352 348 349 345 339 338 336 332 328 326 325 323 321 317 314 314 316 317 312 307 304 302 296 292 298 299 299 296 291 288
31 29 26 20 16 13 5 355 348 346 347 340 338 339 335 330 325 323 320 318 316 315 315 314 311 310 304 300 298 298 299 297 293 292 296 298 298 298
26 22 17 9 9 10 3 356 348 347 347 346 344 339 334 328 322 318 317 316 315 313 312 309 309 310 309 306 305 305 305 305 300 293 286 280 288 293
20 12 4 2 10 10 4 351 347 350 353 350 343 335 328 322 317 315 315 314 313 311 311 311 312 310 307 304 304 304 305 308 309 309 303 298 293 284
Height
1553 1554 1555 1557 1558 1559 1559 1560 1561 1561 1561 1561 1561 1562 1562 1562 1563 1563 1563 1563 1563 1563 1563 1562 1562 1562 1562 1562 1561 1561 1561 1561 1561 1561 1561 1561 1560 1560
1551 1553 1554 1555 1556 1557 1558 1558 1559 1559 1559 1559 1560 1560 1560 1561 1560 1561 1560 1560 1560 1560 1559 1559 1559 1558 1558 1558 1557 1557 1557 1556 1556 1556 1555 1555 1555 1555
1550 1551 1552 1553 1554 1555 1556 1556 1557 1557 1557 1557 1558 1558 1558 1558 1558 1558 1557 1557 1556 1556 1555 1555 1555 1554 1554 1553 1552 1552 1551 1551 1550 1550 1550 1549 1549 1549
1548 1549 1550 1551 1552 1552 1553 1554 1554 1555 1555 1555 1555 1555 1555 1555 1554 1554 1553 1553 1553 1552 1551 1551 1550 1549 1549 1548 1547 1546 1546 1545 1544 1544 1543 1542 1542 1541
1547 1547 1548 1549 1549 1550 1550 1551 1551 1552 1552 1552 1551 1552 1551 1551 1550 1549 1549 1549 1548 1548 1547 1546 1545 1544 1543 1542 1542 1540 1539 1538 1537 1536 1536 1535 1534 1534
1544 1545 1545 1546 1546 1547 1547 1547 1548 1548 1548 1548 1548 1548 1547 1547 1546 1545 1544 1543 1543 1542 1541 1540 1539 1538 1537 1536 1535 1534 1533 1531 1530 1529 1528 1527 1527 1526
1541 1542 1542 1543 1543 1544 1544 1544 1544 1544 1544 1544 1544 1543 1543 1542 1541 1540 1539 1538 1537 1537 1535 1534 1532 1531 1531 1529 1528 1527 1525 1524 1522 1521 1520 1519 1518 1517
1538 1539 1539 1540 1540 1540 1540 1540 1540 1540 1540 1540 1539 1539 1538 1537 1536 1535 1533 1532 1530 1531 1528 1527 1526 1524 1523 1522 1521 1520 1518 1516 1515 1513 1512 1510 1509 1508
1535 1536 1536 1537 1537 1537 1536 1536 1536 1536 1536 1536 1535 1534 1534 1532 1531 1530 1529 1527 1525 1524 1522 1518 1519 1517 1517 1515 1514 1512 1510 1508 1506 1505 1503 1501 1500 1499
1533 1534 1534 1534 1534 1534 1533 1533 1533 1533 1532 1531 1531 1530 1529 1528 1526 1525 1523 1520 1518 1518 1517 1513 1511 1510 1509 1507 1506 1504 1503 1500 1498 1496 1495 1493 1491 1489
1532 1532 1532 1532 1532 1531 1531 1530 1530 1529 1529 1528 1527 1526 1525 1524 1522 1520 1518 1516 1513 1512 1512 1509 1506 1503 1500 1499 1498 1497 1495 1493 1490 1488 1486 1484 1483 1480
1531 1531 1530 1530 1530 1529 1528 1527 1527 1526 1525 1524 1523 1522 1521 1520 1518 1516 1514 1512 1510 1508 1507 1504 1500 1497 1493 1491 1491 1489 1487 1485 1483 1480 1478 1476 1474 1472
1530 1530 1529 1528 1528 1527 1526 1525 1524 1523 1521 1520 1520 1519 1518 1516 1514 1512 1510 1509 1506 1504 1502 1500 1496 1493 1490 1485 1483 1482 1480 1477 1475 1472 1470 1468 1467 1465
1530 1529 1528 1527 1526 1525 1524 1523 1522 1521 1519 1518 1517 1516 1514 1512 1510 1508 1506 1504 1502 1500 1497 1495 1492 1489 1485 1480 1476 1474 1473 1470 1467 1464 1462 1460 1458 1456
1529 1528 1527 1526 1525 1524 1523 1522 1521 1519 1518 1517 1515 1513 1511 1509 1506 1504 1502 1499 1497 1495 1493 1490 1487 1484 1480 1476 1472 1468 1465 1463 1461 1458 1455 1453 1450 1448
1527 1527 1526 1526 1525 1524 1522 1521 1520 1518 1517 1515 1513 1511 1508 1506 1503 1500 1497 1494 1491 1489 1487 1485 1482 1478 1474 1471 1467 1463 1460 1457 1454 1452 1448 1445 1442 1440
1526 1526 1526 1525 1524 1523 1522 1520 1518 1516 1515 1513 1510 1508 1505 1503 1500 1497 1494 1491 1488 1484 1481 1479 1476 1473 1470 1466 1461 1458 1455 1451 1448 1445 1441 1436 1434 1432
1526 1526 1525 1524 1523 1522 1520 1519 1517 1515 1512 1510 1508 1506 1503 1500 1497 1494 1492 1489 1485 1481 1477 1474 1470 1465 1462 1460 1459 1453 1449 1445 1441 1438 1435 1430 1425 1424
1527 1526 1525 1524 1523 1521 1519 1517 1516 1513 1511 1509 1506 1503 1500 1497 1494 1491 1488 1485 1481 1478 1474 1470 1466 1462 1458 1452 1449 1449 1444 1439 1435 1431 1428 1424 1419 1415
1527 1526 1525 1523 1522 1520 1519 1516 1514 1512 1509 1507 1504 1501 1498 1494 1491 1488 1485 1481 1477 1473 1470 1467 1463 1460 1455 1450 1443 1439 1438 1434 1430 1425 1421 1417 1412 1408
1527 1526 1524 1523 1522 1520 1518 1515 1513 1510 1508 1505 1502 1498 1495 1492 1488 1485 1481 1478 1474 1470 1466 1463 1459 1455 1450 1445 1440 1434 1432 1429 1425 1421 1415 1410 1404 1400
1527 1526 1524 1523 1521 1519 1516 1514 1511 1509 1505 1502 1499 1496 1492 1488 1485 1481 1478 1474 1470 1467 1462 1458 1454 1450 1446 1441 1436 1430 1425 1421 1417 1414 1410 1406 1401 1394
1527 1525 1524 1522 1520 1518 1515 1512 1510 1507 1503 1500 1496 1492 1488 1485 1481 1478 1474 1471 1467 1463 1458 1454 1449 1445 1441 1437 1432 1426 1421 1416 1411 1406 1402 1399 1396 1391